Location: ???????
(54.9996°N, 37.9529°E)
Time: 18:50:57
(UTC+00:00)

Okean 1 - Visible Passes

Search period start: 19 July 2024 00:00
Search period end: 29 July 2024 00:00
Orbit: 502 x 529 km, 82.5° (Epoch: 18 July)

Date Brightness Start Highest point End Pass type
(mag) Time Alt. Az. Time Alt. Az. Time Alt. Az.
19 Jul 5.3 21:14:44 10° NNE 21:17:39 21° ENE 21:20:33 10° ESE visible
19 Jul 3.6 22:50:00 10° NNW 22:53:38 47° W 22:55:53 21° SSW visible
20 Jul 5.4 20:59:52 10° NNE 21:02:34 18° ENE 21:05:15 10° ESE visible
20 Jul 3.4 22:34:56 10° NNW 22:38:38 56° W 22:40:46 23° SSW visible
21 Jul 5.6 20:45:02 10° NNE 20:47:27 16° ENE 20:49:52 10° E visible
21 Jul 3.2 22:19:52 10° NNW 22:23:37 67° W 22:25:40 25° S visible
22 Jul 5.7 20:30:12 10° NNE 20:32:18 14° ENE 20:34:24 10° E visible
22 Jul 3.1 22:04:47 10° NNW 22:08:35 79° W 22:10:32 27° S visible
23 Jul 5.7 20:15:27 10° NNE 20:17:07 12° ENE 20:18:48 10° E visible
23 Jul 3.1 21:49:42 10° NNW 21:53:30 87° ENE 21:55:23 28° SSE visible
23 Jul 5.5 23:27:18 10° WNW 23:28:35 11° W 23:29:52 10° WSW visible
24 Jul 5.8 20:00:52 10° NE 20:01:56 11° NE 20:02:59 10° ENE visible
24 Jul 3.2 21:34:35 10° N 21:38:23 74° ENE 21:40:14 28° SSE visible
24 Jul 5.4 23:11:42 10° NW 23:13:34 13° W 23:15:14 11° WSW visible
25 Jul 3.4 21:19:29 10° N 21:23:15 62° ENE 21:25:05 28° SSE visible
25 Jul 5.2 22:56:14 10° NW 22:58:32 16° W 23:00:04 13° WSW visible
26 Jul 3.6 21:04:22 10° N 21:08:05 52° ENE 21:09:55 26° SE visible
26 Jul 5.1 22:40:50 10° NW 22:43:27 18° W 22:44:54 15° WSW visible
27 Jul 3.9 20:49:14 10° N 20:52:53 44° ENE 20:54:44 25° SE visible
27 Jul 4.9 22:25:28 10° NW 22:28:21 21° W 22:29:44 17° WSW visible
28 Jul 4.1 20:34:06 10° N 20:37:40 38° ENE 20:39:33 22° SE visible
28 Jul 4.7 22:10:08 10° NW 22:13:13 24° W 22:14:32 20° WSW visible
